Date,Time,Station,Depth,Comments
21-Apr-2004,8:45:52,MiddleRd,0.418,Sonde reinstalled after Winter
21-Apr-2004,9:00:52,MiddleRd,0.532,NA
21-Apr-2004,9:15:52,MiddleRd,0.655,NA
21-Apr-2004,9:30:52,MiddleRd,0.781,NA
21-Apr-2004,9:45:52,MiddleRd,0.913,NA
21-Apr-2004,10:00:52,MiddleRd,1.069,NA
21-Apr-2004,10:15:52,MiddleRd,1.239,NA
21-Apr-2004,10:30:52,MiddleRd,1.430,NA
21-Apr-2004,10:45:52,MiddleRd,1.628,NA
21-Apr-2004,11:00:52,MiddleRd,1.838,NA
21-Apr-2004,11:15:52,MiddleRd,2.047,NA
21-Apr-2004,11:30:52,MiddleRd,2.264,NA
21-Apr-2004,11:45:52,MiddleRd,2.468,NA
21-Apr-2004,12:00:52,MiddleRd,2.657,NA
21-Apr-2004,12:15:52,MiddleRd,2.824,NA
21-Apr-2004,12:30:52,MiddleRd,2.963,NA
21-Apr-2004,12:45:52,MiddleRd,3.064,NA
21-Apr-2004,13:00:52,MiddleRd,3.125,NA
21-Apr-2004,13:15:52,MiddleRd,3.135,NA
21-Apr-2004,13:30:52,MiddleRd,3.079,NA
21-Apr-2004,13:45:52,MiddleRd,2.991,NA
21-Apr-2004,14:00:52,MiddleRd,2.854,NA
21-Apr-2004,14:15:52,MiddleRd,2.728,NA
21-Apr-2004,14:30:52,MiddleRd,2.611,NA
21-Apr-2004,14:45:52,MiddleRd,2.488,NA
21-Apr-2004,15:00:52,MiddleRd,2.380,NA
21-Apr-2004,15:15:52,MiddleRd,2.267,NA
21-Apr-2004,15:30:52,MiddleRd,2.147,NA
21-Apr-2004,15:45:52,MiddleRd,2.034,NA
21-Apr-2004,16:00:52,MiddleRd,1.912,NA
21-Apr-2004,16:15:52,MiddleRd,1.795,NA
21-Apr-2004,16:30:52,MiddleRd,1.678,NA
21-Apr-2004,16:45:52,MiddleRd,1.565,NA
21-Apr-2004,17:00:52,MiddleRd,1.460,NA
21-Apr-2004,17:15:52,MiddleRd,1.357,NA
21-Apr-2004,17:30:52,MiddleRd,1.259,NA
21-Apr-2004,17:45:52,MiddleRd,1.166,NA
21-Apr-2004,18:00:52,MiddleRd,1.071,NA
21-Apr-2004,18:15:52,MiddleRd,0.981,NA
21-Apr-2004,18:30:52,MiddleRd,0.891,NA
21-Apr-2004,18:45:52,MiddleRd,0.808,NA
21-Apr-2004,19:00:52,MiddleRd,0.732,NA
21-Apr-2004,19:15:52,MiddleRd,0.658,NA
21-Apr-2004,19:30:52,MiddleRd,0.586,NA
21-Apr-2004,19:45:52,MiddleRd,0.529,NA
21-Apr-2004,20:00:52,MiddleRd,0.480,NA
21-Apr-2004,20:15:52,MiddleRd,0.471,NA
21-Apr-2004,20:30:52,MiddleRd,0.566,NA
21-Apr-2004,20:45:52,MiddleRd,0.698,NA
21-Apr-2004,21:00:52,MiddleRd,0.826,NA
21-Apr-2004,21:15:52,MiddleRd,0.955,NA
21-Apr-2004,21:30:52,MiddleRd,1.090,NA
21-Apr-2004,21:45:52,MiddleRd,1.238,NA
21-Apr-2004,22:00:52,MiddleRd,1.399,NA
21-Apr-2004,22:15:52,MiddleRd,1.575,NA
21-Apr-2004,22:30:52,MiddleRd,1.763,NA
21-Apr-2004,22:45:52,MiddleRd,1.958,NA
21-Apr-2004,23:00:52,MiddleRd,2.166,NA
21-Apr-2004,23:15:52,MiddleRd,2.384,NA
21-Apr-2004,23:30:52,MiddleRd,2.574,NA
21-Apr-2004,23:45:52,MiddleRd,2.774,NA
22-Apr-2004,0:00:52,MiddleRd,2.943,NA
22-Apr-2004,0:15:52,MiddleRd,3.086,NA
22-Apr-2004,0:30:52,MiddleRd,3.192,NA
22-Apr-2004,0:45:52,MiddleRd,3.255,NA
22-Apr-2004,1:00:52,MiddleRd,3.297,NA
22-Apr-2004,1:15:52,MiddleRd,3.324,NA
22-Apr-2004,1:30:52,MiddleRd,3.334,NA
22-Apr-2004,1:45:52,MiddleRd,3.331,NA
22-Apr-2004,2:00:52,MiddleRd,3.301,NA
22-Apr-2004,2:15:52,MiddleRd,3.224,NA
22-Apr-2004,2:30:52,MiddleRd,3.106,NA
22-Apr-2004,2:45:52,MiddleRd,2.977,NA
22-Apr-2004,3:00:52,MiddleRd,2.842,NA
22-Apr-2004,3:15:52,MiddleRd,2.694,NA
22-Apr-2004,3:30:52,MiddleRd,2.540,NA
22-Apr-2004,3:45:52,MiddleRd,2.387,NA
22-Apr-2004,4:00:52,MiddleRd,2.239,NA
22-Apr-2004,4:15:52,MiddleRd,2.092,NA
22-Apr-2004,4:30:52,MiddleRd,1.954,NA
22-Apr-2004,4:45:52,MiddleRd,1.818,NA
22-Apr-2004,5:00:52,MiddleRd,1.684,NA
22-Apr-2004,5:15:52,MiddleRd,1.565,NA
22-Apr-2004,5:30:52,MiddleRd,1.448,NA
22-Apr-2004,5:45:52,MiddleRd,1.334,NA
22-Apr-2004,6:00:52,MiddleRd,1.228,NA
22-Apr-2004,6:15:52,MiddleRd,1.126,NA
22-Apr-2004,6:30:52,MiddleRd,1.029,NA
22-Apr-2004,6:45:52,MiddleRd,0.935,NA
22-Apr-2004,7:00:52,MiddleRd,0.843,NA
22-Apr-2004,7:15:52,MiddleRd,0.759,NA
22-Apr-2004,7:30:52,MiddleRd,0.677,NA
22-Apr-2004,7:45:52,MiddleRd,0.600,NA
22-Apr-2004,8:00:52,MiddleRd,0.528,NA
22-Apr-2004,8:15:52,MiddleRd,0.464,NA
22-Apr-2004,8:30:52,MiddleRd,0.404,NA
22-Apr-2004,8:45:52,MiddleRd,0.351,NA
22-Apr-2004,9:00:52,MiddleRd,0.315,NA
22-Apr-2004,9:15:52,MiddleRd,0.374,NA
22-Apr-2004,9:30:52,MiddleRd,0.499,NA
22-Apr-2004,9:45:52,MiddleRd,0.619,NA
22-Apr-2004,10:00:52,MiddleRd,0.749,NA
22-Apr-2004,10:15:52,MiddleRd,0.878,NA
22-Apr-2004,10:30:52,MiddleRd,1.021,NA
22-Apr-2004,10:45:52,MiddleRd,1.179,NA
22-Apr-2004,11:00:52,MiddleRd,1.350,NA
22-Apr-2004,11:15:52,MiddleRd,1.534,NA
22-Apr-2004,11:30:52,MiddleRd,1.727,NA
22-Apr-2004,11:45:52,MiddleRd,1.921,NA
22-Apr-2004,12:00:52,MiddleRd,2.120,NA
22-Apr-2004,12:15:52,MiddleRd,2.322,NA
22-Apr-2004,12:30:52,MiddleRd,2.505,NA
22-Apr-2004,12:45:52,MiddleRd,2.672,NA
22-Apr-2004,13:00:52,MiddleRd,2.821,NA
22-Apr-2004,13:15:52,MiddleRd,2.938,NA
22-Apr-2004,13:30:52,MiddleRd,3.023,NA
22-Apr-2004,13:45:52,MiddleRd,3.072,NA
22-Apr-2004,14:00:52,MiddleRd,3.070,NA
22-Apr-2004,14:15:52,MiddleRd,3.014,NA
22-Apr-2004,14:30:52,MiddleRd,2.906,NA
22-Apr-2004,14:45:52,MiddleRd,2.779,NA
22-Apr-2004,15:00:52,MiddleRd,2.661,NA
22-Apr-2004,15:15:52,MiddleRd,2.535,NA
22-Apr-2004,15:30:52,MiddleRd,2.413,NA
22-Apr-2004,15:45:52,MiddleRd,2.301,NA
22-Apr-2004,16:00:52,MiddleRd,2.186,NA
22-Apr-2004,16:15:52,MiddleRd,2.072,NA
22-Apr-2004,16:30:52,MiddleRd,1.955,NA
22-Apr-2004,16:45:52,MiddleRd,1.834,NA
22-Apr-2004,17:00:52,MiddleRd,1.714,NA
22-Apr-2004,17:15:52,MiddleRd,1.602,NA
22-Apr-2004,17:30:52,MiddleRd,1.493,NA
22-Apr-2004,17:45:52,MiddleRd,1.389,NA
22-Apr-2004,18:00:52,MiddleRd,1.288,NA
22-Apr-2004,18:15:52,MiddleRd,1.191,NA
22-Apr-2004,18:30:52,MiddleRd,1.099,NA
22-Apr-2004,18:45:52,MiddleRd,1.009,NA
22-Apr-2004,19:00:52,MiddleRd,0.923,NA
22-Apr-2004,19:15:52,MiddleRd,0.840,NA
22-Apr-2004,19:30:52,MiddleRd,0.763,NA
22-Apr-2004,19:45:52,MiddleRd,0.688,NA
22-Apr-2004,20:00:52,MiddleRd,0.618,NA
22-Apr-2004,20:15:52,MiddleRd,0.557,NA
22-Apr-2004,20:30:52,MiddleRd,0.508,NA
22-Apr-2004,20:45:52,MiddleRd,0.491,NA
22-Apr-2004,21:00:52,MiddleRd,0.566,NA
22-Apr-2004,21:15:52,MiddleRd,0.694,NA
22-Apr-2004,21:30:52,MiddleRd,0.809,NA
22-Apr-2004,21:45:52,MiddleRd,0.930,NA
22-Apr-2004,22:00:52,MiddleRd,1.058,NA
22-Apr-2004,22:15:52,MiddleRd,1.191,NA
22-Apr-2004,22:30:52,MiddleRd,1.338,NA
22-Apr-2004,22:45:52,MiddleRd,1.495,NA
22-Apr-2004,23:00:52,MiddleRd,1.656,NA
22-Apr-2004,23:15:52,MiddleRd,1.829,NA
22-Apr-2004,23:30:52,MiddleRd,2.015,NA
22-Apr-2004,23:45:52,MiddleRd,2.198,NA
23-Apr-2004,0:00:52,MiddleRd,2.391,NA
23-Apr-2004,0:15:52,MiddleRd,2.574,NA
23-Apr-2004,0:30:52,MiddleRd,2.743,NA
23-Apr-2004,0:45:52,MiddleRd,2.886,NA
23-Apr-2004,1:00:52,MiddleRd,3.010,NA
23-Apr-2004,1:15:52,MiddleRd,3.103,NA
23-Apr-2004,1:30:52,MiddleRd,3.166,NA
23-Apr-2004,1:45:52,MiddleRd,3.197,NA
23-Apr-2004,2:00:52,MiddleRd,3.194,NA
23-Apr-2004,2:15:52,MiddleRd,3.158,NA
23-Apr-2004,2:30:52,MiddleRd,3.060,NA
23-Apr-2004,2:45:52,MiddleRd,2.943,NA
23-Apr-2004,3:00:52,MiddleRd,2.801,NA
23-Apr-2004,3:15:52,MiddleRd,2.674,NA
23-Apr-2004,3:30:52,MiddleRd,2.553,NA
23-Apr-2004,3:45:52,MiddleRd,2.425,NA
23-Apr-2004,4:00:52,MiddleRd,2.308,NA
23-Apr-2004,4:15:52,MiddleRd,2.182,NA
23-Apr-2004,4:30:52,MiddleRd,2.055,NA
23-Apr-2004,4:45:52,MiddleRd,1.936,NA
23-Apr-2004,5:00:52,MiddleRd,1.812,NA
23-Apr-2004,5:15:52,MiddleRd,1.690,NA
23-Apr-2004,5:30:52,MiddleRd,1.585,NA
23-Apr-2004,5:45:52,MiddleRd,1.475,NA
23-Apr-2004,6:00:52,MiddleRd,1.369,NA
23-Apr-2004,6:15:52,MiddleRd,1.266,NA
23-Apr-2004,6:30:52,MiddleRd,1.168,NA
23-Apr-2004,6:45:52,MiddleRd,1.071,NA
23-Apr-2004,7:00:52,MiddleRd,0.980,NA
23-Apr-2004,7:15:52,MiddleRd,0.892,NA
23-Apr-2004,7:30:52,MiddleRd,0.809,NA
23-Apr-2004,7:45:52,MiddleRd,0.728,NA
23-Apr-2004,8:00:52,MiddleRd,0.650,NA
23-Apr-2004,8:15:52,MiddleRd,0.578,NA
23-Apr-2004,8:30:52,MiddleRd,0.512,NA
23-Apr-2004,8:45:52,MiddleRd,0.449,NA
23-Apr-2004,9:00:52,MiddleRd,0.393,NA
23-Apr-2004,9:15:52,MiddleRd,0.340,NA
23-Apr-2004,9:30:52,MiddleRd,0.300,NA
23-Apr-2004,9:45:52,MiddleRd,0.277,NA
23-Apr-2004,10:00:52,MiddleRd,0.335,NA
23-Apr-2004,10:15:52,MiddleRd,0.467,NA
23-Apr-2004,10:30:52,MiddleRd,0.584,NA
23-Apr-2004,10:45:52,MiddleRd,0.715,NA
23-Apr-2004,11:00:52,MiddleRd,0.832,NA
23-Apr-2004,11:15:52,MiddleRd,0.967,NA
23-Apr-2004,11:30:52,MiddleRd,1.113,NA
23-Apr-2004,11:45:52,MiddleRd,1.281,NA
23-Apr-2004,12:00:52,MiddleRd,1.450,NA
23-Apr-2004,12:15:52,MiddleRd,1.630,NA
23-Apr-2004,12:30:52,MiddleRd,1.814,NA
23-Apr-2004,12:45:52,MiddleRd,1.991,NA
23-Apr-2004,13:00:52,MiddleRd,2.178,NA
23-Apr-2004,13:15:52,MiddleRd,2.352,NA
23-Apr-2004,13:30:52,MiddleRd,2.512,NA
23-Apr-2004,13:45:52,MiddleRd,2.648,NA
23-Apr-2004,14:00:52,MiddleRd,2.766,NA
23-Apr-2004,14:15:52,MiddleRd,2.849,NA
23-Apr-2004,14:30:52,MiddleRd,2.886,NA
23-Apr-2004,14:45:52,MiddleRd,2.829,NA
23-Apr-2004,15:00:52,MiddleRd,2.778,NA
23-Apr-2004,15:15:52,MiddleRd,2.635,NA
23-Apr-2004,15:30:52,MiddleRd,2.513,NA
23-Apr-2004,15:45:52,MiddleRd,2.403,NA
23-Apr-2004,16:00:52,MiddleRd,2.296,NA
23-Apr-2004,16:15:52,MiddleRd,2.200,NA
23-Apr-2004,16:30:52,MiddleRd,2.115,NA
23-Apr-2004,16:45:52,MiddleRd,2.022,NA
23-Apr-2004,17:00:52,MiddleRd,1.925,NA
23-Apr-2004,17:15:52,MiddleRd,1.830,NA
23-Apr-2004,17:30:52,MiddleRd,1.716,NA
23-Apr-2004,17:45:52,MiddleRd,1.613,NA
23-Apr-2004,18:00:52,MiddleRd,1.510,NA
23-Apr-2004,18:15:52,MiddleRd,1.413,NA
23-Apr-2004,18:30:52,MiddleRd,1.321,NA
23-Apr-2004,18:45:52,MiddleRd,1.231,NA
23-Apr-2004,19:00:52,MiddleRd,1.141,NA
23-Apr-2004,19:15:52,MiddleRd,1.059,NA
23-Apr-2004,19:30:52,MiddleRd,0.977,NA
23-Apr-2004,19:45:52,MiddleRd,0.901,NA
23-Apr-2004,20:00:52,MiddleRd,0.825,NA
23-Apr-2004,20:15:52,MiddleRd,0.758,NA
23-Apr-2004,20:30:52,MiddleRd,0.697,NA
23-Apr-2004,20:45:52,MiddleRd,0.640,NA
23-Apr-2004,21:00:52,MiddleRd,0.600,NA
23-Apr-2004,21:15:52,MiddleRd,0.606,NA
23-Apr-2004,21:30:52,MiddleRd,0.673,NA
23-Apr-2004,21:45:52,MiddleRd,0.791,NA
23-Apr-2004,22:00:52,MiddleRd,0.910,NA
23-Apr-2004,22:15:52,MiddleRd,1.031,NA
23-Apr-2004,22:30:52,MiddleRd,1.152,NA
23-Apr-2004,22:45:52,MiddleRd,1.277,NA
23-Apr-2004,23:00:52,MiddleRd,1.403,NA
23-Apr-2004,23:15:52,MiddleRd,1.545,NA
23-Apr-2004,23:30:52,MiddleRd,1.691,NA
23-Apr-2004,23:45:52,MiddleRd,1.851,NA
24-Apr-2004,0:00:52,MiddleRd,2.023,NA
24-Apr-2004,0:15:52,MiddleRd,2.204,NA
24-Apr-2004,0:30:52,MiddleRd,2.386,NA
24-Apr-2004,0:45:52,MiddleRd,2.561,NA
24-Apr-2004,1:00:52,MiddleRd,2.722,NA
24-Apr-2004,1:15:52,MiddleRd,2.863,NA
24-Apr-2004,1:30:52,MiddleRd,2.986,NA
24-Apr-2004,1:45:52,MiddleRd,3.088,NA
24-Apr-2004,2:00:52,MiddleRd,3.156,NA
24-Apr-2004,2:15:52,MiddleRd,3.199,NA
24-Apr-2004,2:30:52,MiddleRd,3.219,NA
24-Apr-2004,2:45:52,MiddleRd,3.217,NA
24-Apr-2004,3:00:52,MiddleRd,3.170,NA
24-Apr-2004,3:15:52,MiddleRd,3.088,NA
24-Apr-2004,3:30:52,MiddleRd,2.972,NA
24-Apr-2004,3:45:52,MiddleRd,2.850,NA
24-Apr-2004,4:00:52,MiddleRd,2.721,NA
24-Apr-2004,4:15:52,MiddleRd,2.595,NA
24-Apr-2004,4:30:52,MiddleRd,2.472,NA
24-Apr-2004,4:45:52,MiddleRd,2.357,NA
24-Apr-2004,5:00:52,MiddleRd,2.241,NA
24-Apr-2004,5:15:52,MiddleRd,2.118,NA
24-Apr-2004,5:30:52,MiddleRd,1.993,NA
24-Apr-2004,5:45:52,MiddleRd,1.874,NA
24-Apr-2004,6:00:52,MiddleRd,1.763,NA
24-Apr-2004,6:15:52,MiddleRd,1.645,NA
24-Apr-2004,6:30:52,MiddleRd,1.533,NA
24-Apr-2004,6:45:52,MiddleRd,1.425,NA
24-Apr-2004,7:00:52,MiddleRd,1.326,NA
24-Apr-2004,7:15:52,MiddleRd,1.225,NA
24-Apr-2004,7:30:52,MiddleRd,1.131,NA
24-Apr-2004,7:45:52,MiddleRd,1.039,NA
24-Apr-2004,8:00:52,MiddleRd,0.953,NA
24-Apr-2004,8:15:52,MiddleRd,0.868,NA
24-Apr-2004,8:30:52,MiddleRd,0.787,NA
24-Apr-2004,8:45:52,MiddleRd,0.708,NA
24-Apr-2004,9:00:52,MiddleRd,0.637,NA
24-Apr-2004,9:15:52,MiddleRd,0.565,NA
24-Apr-2004,9:30:52,MiddleRd,0.502,NA
24-Apr-2004,9:45:52,MiddleRd,0.447,NA
24-Apr-2004,10:00:52,MiddleRd,0.410,NA
24-Apr-2004,10:15:52,MiddleRd,0.429,NA
24-Apr-2004,10:30:52,MiddleRd,0.511,NA
24-Apr-2004,10:45:52,MiddleRd,0.627,NA
24-Apr-2004,11:00:52,MiddleRd,0.743,NA
24-Apr-2004,11:15:52,MiddleRd,0.860,NA
24-Apr-2004,11:30:52,MiddleRd,0.979,NA
24-Apr-2004,11:45:52,MiddleRd,1.105,NA
24-Apr-2004,12:00:52,MiddleRd,1.233,NA
24-Apr-2004,12:15:52,MiddleRd,1.379,NA
24-Apr-2004,12:30:52,MiddleRd,1.532,NA
24-Apr-2004,12:45:52,MiddleRd,1.689,NA
24-Apr-2004,13:00:52,MiddleRd,1.849,NA
24-Apr-2004,13:15:52,MiddleRd,2.008,NA
24-Apr-2004,13:30:52,MiddleRd,2.173,NA
24-Apr-2004,13:45:52,MiddleRd,2.334,NA
24-Apr-2004,14:00:52,MiddleRd,2.477,NA
24-Apr-2004,14:15:52,MiddleRd,2.594,NA
24-Apr-2004,14:30:52,MiddleRd,2.704,NA
24-Apr-2004,14:45:52,MiddleRd,2.783,NA
24-Apr-2004,15:00:52,MiddleRd,2.820,NA
24-Apr-2004,15:15:52,MiddleRd,2.815,NA
24-Apr-2004,15:30:52,MiddleRd,2.750,NA
24-Apr-2004,15:45:52,MiddleRd,2.670,NA
24-Apr-2004,16:00:52,MiddleRd,2.580,NA
24-Apr-2004,16:15:52,MiddleRd,2.494,NA
24-Apr-2004,16:30:52,MiddleRd,2.386,NA
24-Apr-2004,16:45:52,MiddleRd,2.291,NA
24-Apr-2004,17:00:52,MiddleRd,2.198,NA
24-Apr-2004,17:15:52,MiddleRd,2.130,NA
24-Apr-2004,17:30:52,MiddleRd,2.023,NA
24-Apr-2004,17:45:52,MiddleRd,1.925,NA
24-Apr-2004,18:00:52,MiddleRd,1.815,NA
24-Apr-2004,18:15:52,MiddleRd,1.722,NA
24-Apr-2004,18:30:52,MiddleRd,1.618,NA
24-Apr-2004,18:45:52,MiddleRd,1.512,NA
24-Apr-2004,19:00:52,MiddleRd,1.418,NA
24-Apr-2004,19:15:52,MiddleRd,1.326,NA
24-Apr-2004,19:30:52,MiddleRd,1.237,NA
24-Apr-2004,19:45:52,MiddleRd,1.140,NA
24-Apr-2004,20:00:52,MiddleRd,1.055,NA
24-Apr-2004,20:15:52,MiddleRd,0.974,NA
24-Apr-2004,20:30:52,MiddleRd,0.893,NA
24-Apr-2004,20:45:52,MiddleRd,0.822,NA
24-Apr-2004,21:00:52,MiddleRd,0.750,NA
24-Apr-2004,21:15:52,MiddleRd,0.687,NA
24-Apr-2004,21:30:52,MiddleRd,0.646,NA
24-Apr-2004,21:45:52,MiddleRd,0.612,NA
24-Apr-2004,22:00:52,MiddleRd,0.642,NA
24-Apr-2004,22:15:52,MiddleRd,0.734,NA
24-Apr-2004,22:30:52,MiddleRd,0.846,NA
24-Apr-2004,22:45:52,MiddleRd,0.966,NA
24-Apr-2004,23:00:52,MiddleRd,1.092,NA
24-Apr-2004,23:15:52,MiddleRd,1.204,NA
24-Apr-2004,23:30:52,MiddleRd,1.328,NA
24-Apr-2004,23:45:52,MiddleRd,1.438,NA
25-Apr-2004,0:00:52,MiddleRd,1.568,NA
25-Apr-2004,0:15:52,MiddleRd,1.708,NA
25-Apr-2004,0:30:52,MiddleRd,1.853,NA
25-Apr-2004,0:45:52,MiddleRd,2.005,NA
25-Apr-2004,1:00:52,MiddleRd,2.170,NA
25-Apr-2004,1:15:52,MiddleRd,2.321,NA
25-Apr-2004,1:30:52,MiddleRd,2.472,NA
25-Apr-2004,1:45:52,MiddleRd,2.603,NA
25-Apr-2004,2:00:52,MiddleRd,2.723,NA
25-Apr-2004,2:15:52,MiddleRd,2.827,NA
25-Apr-2004,2:30:52,MiddleRd,2.908,NA
25-Apr-2004,2:45:52,MiddleRd,2.957,NA
25-Apr-2004,3:00:52,MiddleRd,2.965,NA
25-Apr-2004,3:15:52,MiddleRd,2.939,NA
25-Apr-2004,3:30:52,MiddleRd,2.857,NA
25-Apr-2004,3:45:52,MiddleRd,2.750,NA
25-Apr-2004,4:00:52,MiddleRd,2.629,NA
25-Apr-2004,4:15:52,MiddleRd,2.534,NA
25-Apr-2004,4:30:52,MiddleRd,2.430,NA
25-Apr-2004,4:45:52,MiddleRd,2.355,NA
25-Apr-2004,5:00:52,MiddleRd,2.252,NA
25-Apr-2004,5:15:52,MiddleRd,2.150,NA
25-Apr-2004,5:30:52,MiddleRd,2.050,NA
25-Apr-2004,5:45:52,MiddleRd,1.946,NA
25-Apr-2004,6:00:52,MiddleRd,1.835,NA
25-Apr-2004,6:15:52,MiddleRd,1.723,NA
25-Apr-2004,6:30:52,MiddleRd,1.617,NA
25-Apr-2004,6:45:52,MiddleRd,1.513,NA
25-Apr-2004,7:00:52,MiddleRd,1.410,NA
25-Apr-2004,7:15:52,MiddleRd,1.313,NA
25-Apr-2004,7:30:52,MiddleRd,1.219,NA
25-Apr-2004,7:45:52,MiddleRd,1.129,NA
25-Apr-2004,8:00:52,MiddleRd,1.040,NA
25-Apr-2004,8:15:52,MiddleRd,0.956,NA
25-Apr-2004,8:30:52,MiddleRd,0.872,NA
25-Apr-2004,8:45:52,MiddleRd,0.791,NA
25-Apr-2004,9:00:52,MiddleRd,0.715,NA
25-Apr-2004,9:15:52,MiddleRd,0.641,NA
25-Apr-2004,9:30:52,MiddleRd,0.575,NA
25-Apr-2004,9:45:52,MiddleRd,0.512,NA
25-Apr-2004,10:00:52,MiddleRd,0.453,NA
25-Apr-2004,10:15:52,MiddleRd,0.401,NA
25-Apr-2004,10:30:52,MiddleRd,0.361,NA
25-Apr-2004,10:45:52,MiddleRd,0.357,NA
25-Apr-2004,11:00:52,MiddleRd,0.426,NA
25-Apr-2004,11:15:52,MiddleRd,0.538,NA
25-Apr-2004,11:30:52,MiddleRd,0.640,NA
25-Apr-2004,11:45:52,MiddleRd,0.745,NA
25-Apr-2004,12:00:52,MiddleRd,0.843,NA
25-Apr-2004,12:15:52,MiddleRd,0.954,NA
25-Apr-2004,12:30:52,MiddleRd,1.075,NA
25-Apr-2004,12:45:52,MiddleRd,1.199,NA
25-Apr-2004,13:00:52,MiddleRd,1.341,NA
25-Apr-2004,13:15:52,MiddleRd,1.489,NA
25-Apr-2004,13:30:52,MiddleRd,1.640,NA
25-Apr-2004,13:45:52,MiddleRd,1.794,NA
25-Apr-2004,14:00:52,MiddleRd,1.946,NA
25-Apr-2004,14:15:52,MiddleRd,2.099,NA
25-Apr-2004,14:30:52,MiddleRd,2.251,NA
25-Apr-2004,14:45:52,MiddleRd,2.389,NA
25-Apr-2004,15:00:52,MiddleRd,2.508,NA
25-Apr-2004,15:15:52,MiddleRd,2.618,NA
25-Apr-2004,15:30:52,MiddleRd,2.692,NA
25-Apr-2004,15:45:52,MiddleRd,2.732,NA
25-Apr-2004,16:00:52,MiddleRd,2.728,NA
25-Apr-2004,16:15:52,MiddleRd,2.670,NA
25-Apr-2004,16:30:52,MiddleRd,2.570,NA
25-Apr-2004,16:45:52,MiddleRd,2.475,NA
25-Apr-2004,17:00:52,MiddleRd,2.367,NA
25-Apr-2004,17:15:52,MiddleRd,2.286,NA
25-Apr-2004,17:30:52,MiddleRd,2.218,NA
25-Apr-2004,17:45:52,MiddleRd,2.138,NA
25-Apr-2004,18:00:52,MiddleRd,2.052,NA
25-Apr-2004,18:15:52,MiddleRd,1.966,NA
25-Apr-2004,18:30:52,MiddleRd,1.874,NA
25-Apr-2004,18:45:52,MiddleRd,1.769,NA
25-Apr-2004,19:00:52,MiddleRd,1.671,NA
25-Apr-2004,19:15:52,MiddleRd,1.577,NA
25-Apr-2004,19:30:52,MiddleRd,1.483,NA
25-Apr-2004,19:45:52,MiddleRd,1.393,NA
25-Apr-2004,20:00:52,MiddleRd,1.302,NA
25-Apr-2004,20:15:52,MiddleRd,1.213,NA
25-Apr-2004,20:30:52,MiddleRd,1.134,NA
25-Apr-2004,20:45:52,MiddleRd,1.052,NA
25-Apr-2004,21:00:52,MiddleRd,0.976,NA
25-Apr-2004,21:15:52,MiddleRd,0.906,NA
25-Apr-2004,21:30:52,MiddleRd,0.839,NA
25-Apr-2004,21:45:52,MiddleRd,0.778,NA
25-Apr-2004,22:00:52,MiddleRd,0.727,NA
25-Apr-2004,22:15:52,MiddleRd,0.688,NA
25-Apr-2004,22:30:52,MiddleRd,0.669,NA
25-Apr-2004,22:45:52,MiddleRd,0.737,NA
25-Apr-2004,23:00:52,MiddleRd,0.827,NA
25-Apr-2004,23:15:52,MiddleRd,0.938,NA
25-Apr-2004,23:30:52,MiddleRd,1.045,NA
25-Apr-2004,23:45:52,MiddleRd,1.146,NA
26-Apr-2004,0:00:52,MiddleRd,1.248,NA
26-Apr-2004,0:15:52,MiddleRd,1.354,NA
26-Apr-2004,0:30:52,MiddleRd,1.467,NA
26-Apr-2004,0:45:52,MiddleRd,1.585,NA
26-Apr-2004,1:00:52,MiddleRd,1.719,NA
26-Apr-2004,1:15:52,MiddleRd,1.850,NA
26-Apr-2004,1:30:52,MiddleRd,1.989,NA
26-Apr-2004,1:45:52,MiddleRd,2.142,NA
26-Apr-2004,2:00:52,MiddleRd,2.294,NA
26-Apr-2004,2:15:52,MiddleRd,2.437,NA
26-Apr-2004,2:30:52,MiddleRd,2.570,NA
26-Apr-2004,2:45:52,MiddleRd,2.698,NA
26-Apr-2004,3:00:52,MiddleRd,2.808,NA
26-Apr-2004,3:15:52,MiddleRd,2.891,NA
26-Apr-2004,3:30:52,MiddleRd,2.956,NA
26-Apr-2004,3:45:52,MiddleRd,2.986,NA
26-Apr-2004,4:00:52,MiddleRd,3.001,NA
26-Apr-2004,4:15:52,MiddleRd,2.985,NA
26-Apr-2004,4:30:52,MiddleRd,2.924,NA
26-Apr-2004,4:45:52,MiddleRd,2.838,NA
26-Apr-2004,5:00:52,MiddleRd,2.755,NA
26-Apr-2004,5:15:52,MiddleRd,2.638,NA
26-Apr-2004,5:30:52,MiddleRd,2.522,NA
26-Apr-2004,5:45:52,MiddleRd,2.424,NA
26-Apr-2004,6:00:52,MiddleRd,2.300,NA
26-Apr-2004,6:15:52,MiddleRd,2.212,NA
26-Apr-2004,6:30:52,MiddleRd,2.093,NA
26-Apr-2004,6:45:52,MiddleRd,1.993,NA
26-Apr-2004,7:00:52,MiddleRd,1.902,NA
26-Apr-2004,7:15:52,MiddleRd,1.799,NA
26-Apr-2004,7:30:52,MiddleRd,1.694,NA
26-Apr-2004,7:45:52,MiddleRd,1.587,NA
26-Apr-2004,8:00:52,MiddleRd,1.484,NA
26-Apr-2004,8:15:52,MiddleRd,1.382,NA
26-Apr-2004,8:30:52,MiddleRd,1.290,NA
26-Apr-2004,8:45:52,MiddleRd,1.200,NA
26-Apr-2004,9:00:52,MiddleRd,1.112,NA
26-Apr-2004,9:15:52,MiddleRd,1.030,NA
26-Apr-2004,9:30:52,MiddleRd,0.949,NA
26-Apr-2004,9:45:52,MiddleRd,0.871,NA
26-Apr-2004,10:00:52,MiddleRd,0.801,NA
26-Apr-2004,10:15:52,MiddleRd,0.732,NA
26-Apr-2004,10:30:52,MiddleRd,0.668,NA
26-Apr-2004,10:45:52,MiddleRd,0.611,NA
26-Apr-2004,11:00:52,MiddleRd,0.561,NA
26-Apr-2004,11:15:52,MiddleRd,0.534,NA
26-Apr-2004,11:30:52,MiddleRd,0.552,NA
26-Apr-2004,11:45:52,MiddleRd,0.645,NA
26-Apr-2004,12:00:52,MiddleRd,0.758,NA
26-Apr-2004,12:15:52,MiddleRd,0.868,NA
26-Apr-2004,12:30:52,MiddleRd,0.965,NA
26-Apr-2004,12:45:52,MiddleRd,1.061,NA
26-Apr-2004,13:00:52,MiddleRd,1.161,NA
26-Apr-2004,13:15:52,MiddleRd,1.270,NA
26-Apr-2004,13:30:52,MiddleRd,1.390,NA
26-Apr-2004,13:45:52,MiddleRd,1.518,NA
26-Apr-2004,14:00:52,MiddleRd,1.645,NA
26-Apr-2004,14:15:52,MiddleRd,1.772,NA
26-Apr-2004,14:30:52,MiddleRd,1.908,NA
26-Apr-2004,14:45:52,MiddleRd,2.050,NA
26-Apr-2004,15:00:52,MiddleRd,2.174,NA
26-Apr-2004,15:15:52,MiddleRd,2.313,NA
26-Apr-2004,15:30:52,MiddleRd,2.429,NA
26-Apr-2004,15:45:52,MiddleRd,2.535,NA
26-Apr-2004,16:00:52,MiddleRd,2.626,NA
26-Apr-2004,16:15:52,MiddleRd,2.685,NA
26-Apr-2004,16:30:52,MiddleRd,2.718,NA
26-Apr-2004,16:45:52,MiddleRd,2.726,NA
26-Apr-2004,17:00:52,MiddleRd,2.665,NA
26-Apr-2004,17:15:52,MiddleRd,2.584,NA
26-Apr-2004,17:30:52,MiddleRd,2.506,NA
26-Apr-2004,17:45:52,MiddleRd,2.392,NA
26-Apr-2004,18:00:52,MiddleRd,2.326,NA
26-Apr-2004,18:15:52,MiddleRd,2.277,NA
26-Apr-2004,18:30:52,MiddleRd,2.193,NA
26-Apr-2004,18:45:52,MiddleRd,2.149,NA
26-Apr-2004,19:00:52,MiddleRd,2.071,NA
26-Apr-2004,19:15:52,MiddleRd,1.964,NA
26-Apr-2004,19:30:52,MiddleRd,1.875,NA
26-Apr-2004,19:45:52,MiddleRd,1.779,NA
26-Apr-2004,20:00:52,MiddleRd,1.675,NA
26-Apr-2004,20:15:52,MiddleRd,1.591,NA
26-Apr-2004,20:30:52,MiddleRd,1.499,NA
26-Apr-2004,20:45:52,MiddleRd,1.413,NA
26-Apr-2004,21:00:52,MiddleRd,1.331,NA
26-Apr-2004,21:15:52,MiddleRd,1.255,NA
26-Apr-2004,21:30:52,MiddleRd,1.178,NA
26-Apr-2004,21:45:52,MiddleRd,1.109,NA
26-Apr-2004,22:00:52,MiddleRd,1.045,NA
26-Apr-2004,22:15:52,MiddleRd,0.977,NA
26-Apr-2004,22:30:52,MiddleRd,0.923,NA
26-Apr-2004,22:45:52,MiddleRd,0.880,NA
26-Apr-2004,23:00:52,MiddleRd,0.861,NA
26-Apr-2004,23:15:52,MiddleRd,0.891,NA
26-Apr-2004,23:30:52,MiddleRd,0.935,NA
26-Apr-2004,23:45:52,MiddleRd,1.025,NA
27-Apr-2004,0:00:52,MiddleRd,1.142,NA
27-Apr-2004,0:15:52,MiddleRd,1.255,NA
27-Apr-2004,0:30:52,MiddleRd,1.380,NA
27-Apr-2004,0:45:52,MiddleRd,1.488,NA
27-Apr-2004,1:00:52,MiddleRd,1.605,NA
27-Apr-2004,1:15:52,MiddleRd,1.715,NA
27-Apr-2004,1:30:52,MiddleRd,1.819,NA
27-Apr-2004,1:45:52,MiddleRd,1.941,NA
27-Apr-2004,2:00:52,MiddleRd,2.089,NA
27-Apr-2004,2:15:52,MiddleRd,2.217,NA
27-Apr-2004,2:30:52,MiddleRd,2.372,NA
27-Apr-2004,2:45:52,MiddleRd,2.511,NA
27-Apr-2004,3:00:52,MiddleRd,2.644,NA
27-Apr-2004,3:15:52,MiddleRd,2.774,NA
27-Apr-2004,3:30:52,MiddleRd,2.887,NA
27-Apr-2004,3:45:52,MiddleRd,2.980,NA
27-Apr-2004,4:00:52,MiddleRd,3.064,NA
27-Apr-2004,4:15:52,MiddleRd,3.114,NA
27-Apr-2004,4:30:52,MiddleRd,3.154,NA
27-Apr-2004,4:45:52,MiddleRd,3.157,NA
27-Apr-2004,5:00:52,MiddleRd,3.149,NA
27-Apr-2004,5:15:52,MiddleRd,3.091,NA
27-Apr-2004,5:30:52,MiddleRd,3.010,NA
27-Apr-2004,5:45:52,MiddleRd,2.907,NA
27-Apr-2004,6:00:52,MiddleRd,2.801,NA
27-Apr-2004,6:15:52,MiddleRd,2.695,NA
27-Apr-2004,6:30:52,MiddleRd,2.602,NA
27-Apr-2004,6:45:52,MiddleRd,2.512,NA
27-Apr-2004,7:00:52,MiddleRd,2.400,NA
27-Apr-2004,7:15:52,MiddleRd,2.300,NA
27-Apr-2004,7:30:52,MiddleRd,2.190,NA
27-Apr-2004,7:45:52,MiddleRd,2.073,NA
27-Apr-2004,8:00:52,MiddleRd,1.976,NA
27-Apr-2004,8:15:52,MiddleRd,1.852,NA
27-Apr-2004,8:30:52,MiddleRd,1.749,NA
27-Apr-2004,8:45:52,MiddleRd,1.645,NA
27-Apr-2004,9:00:52,MiddleRd,1.545,NA
27-Apr-2004,9:15:52,MiddleRd,1.447,NA
27-Apr-2004,9:30:52,MiddleRd,1.356,NA
27-Apr-2004,9:45:52,MiddleRd,1.266,NA
27-Apr-2004,10:00:52,MiddleRd,1.181,NA
27-Apr-2004,10:15:52,MiddleRd,1.101,NA
27-Apr-2004,10:30:52,MiddleRd,1.025,NA
27-Apr-2004,10:45:52,MiddleRd,0.950,NA
27-Apr-2004,11:00:52,MiddleRd,0.879,NA
27-Apr-2004,11:15:52,MiddleRd,0.812,NA
27-Apr-2004,11:30:52,MiddleRd,0.754,NA
27-Apr-2004,11:45:52,MiddleRd,0.707,NA
27-Apr-2004,12:00:52,MiddleRd,0.669,NA
27-Apr-2004,12:15:52,MiddleRd,0.676,NA
27-Apr-2004,12:30:52,MiddleRd,0.767,NA
27-Apr-2004,12:45:52,MiddleRd,0.862,NA
27-Apr-2004,13:00:52,MiddleRd,0.983,NA
27-Apr-2004,13:15:52,MiddleRd,1.092,NA
27-Apr-2004,13:30:52,MiddleRd,1.193,NA
27-Apr-2004,13:45:52,MiddleRd,1.299,NA
27-Apr-2004,14:00:52,MiddleRd,1.404,NA
27-Apr-2004,14:15:52,MiddleRd,1.526,NA
27-Apr-2004,14:30:52,MiddleRd,1.651,NA
27-Apr-2004,14:45:52,MiddleRd,1.781,NA
27-Apr-2004,15:00:52,MiddleRd,1.914,NA
27-Apr-2004,15:15:52,MiddleRd,2.054,NA
27-Apr-2004,15:30:52,MiddleRd,2.196,NA